KUIPER-00270

Last updated on Sun Mar 15 2026 00:02:06 GMT+0000 (Coordinated Universal Time)

1 67791U 26030AD 26073.59809811 .00047458 00000+0 13822-2 0 9995 2 67791 51.8832 195.7132 0010798 72.2865 287.9298 15.34875808 5843
UTC large
Height (km)
Speed (km/s)
/
Latitude / Longitude
Inclination (degrees)
Orbital Period (minutes)
Azimuth
Elevation
Range (km)
Doppler Factor

Next 0 passes for location: London (51.5072 / 0.1276)

Sorry there are no passes over London.